Regional Weather Roundup
Issued by NWS

Home | Current Version | Previous Version | Graphics & Text | Print | Product List | Glossary On
Versions: 1 2 3 4 5 6 7 8 9 10 11 12 13 14 15 16 17 18 19 20 21 22 23 24 25 26 27 28
000
ASUS45 KSLC 301210
RWRUT

UTAH REGIONAL WEATHER ROUNDUP
NATIONAL WEATHER SERVICE SALT LAKE CITY UT
600 AM MDT SAT JUL 30 2016

UTZ001>011-023>025-301300-

NORTHERN UTAH

CITY           SKY/WX    TMP DP  RH WIND       PRES   REMARKS
BRIGHAM CITY     N/A     65  49  56 CALM      29.95R
HILL AFB       CLEAR     70  38  31 E15       29.98R
LOGAN          CLEAR     55  49  80 CALM      29.97R
OGDEN          CLEAR     70  40  33 S8        29.94R
PROVO AIRPORT  MOCLDY    66  43  42 E8        29.98R
SALT LAKE CITY PTCLDY    76  45  33 E9        29.92S
VERNAL         CLEAR     60  39  45 W5        30.04R
WENDOVER       CLEAR     75  45  33 E5        29.93S
HEBER CITY     CLOUDY    59  43  55 CALM      30.07S

$$

UTZ012>022-026-027-301300-

SOUTHERN/CENTRAL UTAH

CITY           SKY/WX    TMP DP  RH WIND       PRES   REMARKS
BLANDING       CLOUDY    71  44  37 CALM      30.20R
BRYCE CANYON   CLOUDY    58  42  55 W3        30.27R
CEDAR CITY     CLEAR     65  41  41 NE6       30.09R
DELTA          PTCLDY    73  39  29 S10       30.00R
MILFORD        CLEAR     69  45  41 S10       30.02R
MOAB/CYNLANDS  MOCLDY    82  39  21 E8        29.96R
PRICE          MOCLDY    76  33  21 CALM      30.08R
ST GEORGE      CLOUDY    82  48  30 W10       29.94R

$$

REGIONAL REPORTS     COLORADO/ARIZONA

CITY           SKY/WX    TMP DP  RH WIND       PRES   REMARKS
CRAIG, CO      CLOUDY    43  37  79 CALM      30.14R
GRAND JUNCTION CLOUDY    69  38  32 E5        30.00R
RIFLE          CLEAR     56  42  59 CALM      30.09R
MONTROSE       CLOUDY    69  37  30 SE9       30.10R
CORTEZ         CLOUDY    66  45  46 CALM      30.14R
PAGE, AZ       MOCLDY    83  44  25 W5        29.97R
GRAND CANYON   CLOUDY    59  50  72 CALM      30.22F
KINGMAN        CLOUDY    80  57  45 W9G17     30.00F
FLAGSTAFF      CLOUDY    57  50  77 SW5       30.26R

$$

REGIONAL REPORTS    NEVADA/IDAHO/WYOMING

CITY           SKY/WX    TMP DP  RH WIND       PRES   REMARKS
LAS VEGAS, NV  MOCLDY    86  59  39 S9G20     29.83R
ELY            PTCLDY    52  43  71 S12       30.13F
ELKO           MOCLDY    73  43  33 E5        30.00F
POCATELLO, ID  PTCLDY    62  41  46 S6        29.95R
BURLEY         PTCLDY    65  45  48 SW3       29.90R
EVANSTON, WY   CLOUDY    62  32  32 S7        30.17S
ROCK SPRINGS   CLOUDY    60  45  57 E8        30.16S
KEMMERER         N/A     52  30  43 N9        30.19S

$$




USA.gov is the U.S. government's official web portal to all federal, state and local government web resources and services.